Location: Noordwijk
(52.2400°N, 4.4500°E)
Time: 13:14:55
(UTC+00:00)

AO-85 - Pass Details

Date: 06 December 2022
Orbit: 516 x 753 km, 64.8° (Epoch: 04 January)

Event Time Altitude Azimuth Distance (km) Brightness Sun altitude
Rises 18:16:19 0° 297° (WNW) 2,858 ? -24.1°
Reaches altitude 10° 18:19:32 10° 321° (NW) 1,903 ? -24.6°
Enters shadow 18:21:34 15° 350° (N) 1,590 ? -24.9°
